Torax TimeFrame

Torax TimeFrame ⇒ XML

NameTime LeftWindow OpensKilledCrew
Sylvanna TorLai1d 23:142018-05-21 05:23:002018-05-03 01:09:00Excommunicado
Kretok, Descendant of Nature1d 22:162018-05-21 06:21:002018-05-02 09:43:00Pulse
Karvaz, Lord of Alsayic1d 19:262018-05-21 09:11:002018-05-02 17:57:00SAVAGES
Terrance, Rebel of Rallis0d 19:512018-05-22 08:46:002018-05-01 21:34:00The Bloodguards
Sigil, Lich of Woe0d 18:182018-05-22 10:19:002018-05-03 20:19:00-= ILLUMINATI =-
Lacuste of the Swarm0d 16:472018-05-22 11:50:002018-05-01 22:29:00Excommunicado
Numerocure, The Black Messenger of Evil0d 16:112018-05-22 12:26:002018-05-01 12:28:00[FAP] CoesD
Q-SEC Commander0d 14:072018-05-22 14:30:002018-05-03 14:40:00Pulse
Hyrak, Bringer of Nightmares0d 13:492018-05-22 14:48:002018-05-02 16:45:00-Brothers In Arms-
Zertan, The Collector0d 13:012018-05-22 15:36:002018-05-03 14:08:00Maroder
Synge, The Red Dragon0d 11:272018-05-22 17:10:002018-05-01 21:39:00The Bloodguards
Amalgamated Apparition0d 11:112018-05-22 17:26:002018-05-03 12:01:00[FAP] AstralC
Crane0d 10:072018-05-22 18:30:002018-05-03 01:16:00Blood&Honor
Nar Zhul, Slayer of All0d 09:162018-05-22 19:21:002018-04-30 05:15:00SAVAGE [POT3]
Windstrike The Vile0d 05:202018-05-22 23:17:002018-04-30 10:29:00##ARGYBOYZ##
Samatha Dark-Soul0d 02:242018-05-23 02:13:002018-04-30 23:00:00-= ILLUMINATI =-
Baron Mu, Dark Rider of the Undead0d 00:272018-05-23 04:10:002018-05-03 19:46:00[FAP] Baron
Dreg nor, Keeper of the Infernal Essence0d 00:182018-05-23 04:56:002018-05-01 04:31:00$AVAGE$
Gnorb0d 00:312018-05-23 05:09:002018-05-04 03:50:00Axis of Anarchy
Freezebreed, The Frozen Manipulator0d 02:202018-05-23 06:58:002018-05-03 17:39:00SAVAGE [FREEZE]
Zikkir the Dark Archer0d 02:232018-05-23 07:01:002018-05-02 14:27:00[FAP] AstralA
Shadow0d 02:452018-05-23 07:23:002018-05-03 12:41:00stoka100
Mistress of the Sword0d 04:312018-05-23 09:09:002018-05-02 12:17:00Zero Division
Tsort0d 05:132018-05-23 09:51:002018-05-03 16:30:00perdition {t-c}
Lord Varan0d 05:322018-05-23 10:10:002018-05-03 19:34:00SAVAGE [POT4]
Hackerphage, Protector of the Gateway0d 05:382018-05-23 10:16:002018-05-01 14:11:00[FAP] CoesC
Lord Xordam0d 05:422018-05-23 10:20:002018-05-01 18:22:00A$$holes of America
Ag Nabak the Abomination0d 06:262018-05-23 11:04:002018-04-29 20:26:00-= ILLUMINATI =-
Garland, The Lord Keeper0d 06:442018-05-23 11:22:002018-05-02 20:48:00The Last One Standing
Wanhiroeaz the Devourer0d 06:492018-05-23 11:27:002018-05-02 14:09:00The Last One Standing
Sarcrina the Astral Priestess0d 06:552018-05-23 11:33:002018-05-02 21:10:00SAVAGE [ASTRAL3]
Brutalitar, Lord of the Underworld0d 06:562018-05-23 11:34:002018-05-02 03:14:00[FAP] PotSetA
Quiver, The Renegade0d 06:572018-05-23 11:35:002018-04-30 06:50:00-= ILLUMINATI =-
Lady Ariella0d 07:372018-05-23 12:15:002018-05-04 00:18:00SAVAGE [POT1]
Murderface0d 07:382018-05-23 12:16:002018-05-02 18:12:00-= ILLUMINATI =-
Ancient Magus Tarkin0d 09:242018-05-23 14:02:002018-05-02 16:15:00[FAP] AstralC
Pinosis0d 11:082018-05-23 15:46:002018-05-02 10:28:00Blood&Honor
Nessam0d 11:092018-05-23 15:47:002018-05-03 13:14:00perdition {t-c}
Ebliss, Fallen Angel of Despair0d 11:252018-05-23 16:03:002018-05-03 14:19:00SAVAGE [POT1]
Rancid, Lord of Thugs0d 11:352018-05-23 16:13:002018-05-03 10:09:00-= ILLUMINATI =-
Dlanod, the Crazed Chancellor0d 11:352018-05-23 16:13:002018-04-29 01:27:00SAVAGES
Gorganus of the Wood0d 12:082018-05-23 16:46:002018-05-01 12:50:00SAVAGE
Lord Sibannac0d 13:012018-05-23 17:39:002018-05-03 14:57:00perdition {t-c}
Traxodon the Plaguebringer0d 15:502018-05-23 20:28:002018-05-01 22:00:00The Bloodguards
Melt Bane, The Forbidden Demon Dragon0d 16:132018-05-23 20:51:002018-05-02 05:32:00[FAP] CoesC
King Ashnar, Lord of the Unliving0d 16:212018-05-23 20:59:002018-05-01 14:50:00$AVAGE$
Vitkros, Hydra of the Deep0d 16:242018-05-23 21:02:002018-05-03 18:06:00The Last One Standing
Rotborn, Eater of the Dead0d 16:342018-05-23 21:12:002018-05-02 11:45:00[FAP] CoesD
Bloodchill the Grizzly0d 17:142018-05-23 21:52:002018-05-03 13:12:00perdition {t-c}
Kro Shuk, Doomslayer0d 17:432018-05-23 22:21:002018-04-27 21:56:00SAVAGE [POT1]
Akkel the Enflamed Warrior0d 21:012018-05-24 01:39:002018-05-03 02:22:00SAVAGE [ASTRAL3]
The Emerald Assassin1d 00:152018-05-24 04:53:002018-05-02 03:17:00Untaimables
Tylos, The Lord Master1d 00:352018-05-24 05:13:002018-05-03 17:18:00The Last One Standing
Lord Narada1d 00:362018-05-24 05:14:002018-05-03 14:59:00[FAP] PotSetD
Anguish1d 00:492018-05-24 05:27:002018-05-03 11:33:00stoka100
Ganja the Stone Golem1d 01:082018-05-24 05:46:002018-05-02 10:49:00Zero Division
Lady Chaos, Queen of the Abyss1d 01:162018-05-24 05:54:002018-05-04 03:20:00SAVAGE [COES4]
Nafir, God of Desolation1d 02:202018-05-24 06:58:002018-04-29 10:46:00##ARGYBOYZ##
Volgan the Living Ironbark1d 02:582018-05-24 07:36:002018-05-03 01:25:00SAVAGE [ASTRAL4]
Balerion, Dragon of Dread1d 06:282018-05-24 11:06:002018-04-28 18:41:00##ARGYBOYZ##
Viserion, the Necrodragon1d 06:582018-05-24 11:36:002018-04-29 00:28:00SAVAGES
Jorun the Blazing Swordsman1d 08:492018-05-24 13:27:002018-05-02 03:32:00[FAP] AstralD
Smoot the Yeti1d 13:082018-05-24 17:46:002018-05-02 05:42:00-= ILLUMINATI =-
Detox1d 13:552018-05-24 18:33:002018-05-02 18:15:00Fire and Fury
Slashbrood, Devourer of the Blackness1d 15:242018-05-24 20:02:002018-05-01 13:09:00SAVAGE [COES2]
Jazzmin, Maiden of Vitality1d 16:232018-05-24 21:01:002018-05-01 12:52:00Zero Division
Lord Suka1d 17:182018-05-24 21:56:002018-05-01 15:33:00[FAP] PotSetC
Skybrine The Inescapable1d 17:412018-05-24 22:19:002018-05-02 06:01:00Warriors
Howldroid, Tormentor of the Pit1d 18:092018-05-24 22:47:002018-05-03 02:55:00[FAP] CoesB
Threk, King of Lords1d 18:402018-05-24 23:18:002018-05-03 16:52:00The Last One Standing
Bolkor, the Holy Master1d 21:012018-05-25 01:39:002018-05-03 22:01:00Pulse
Great Lord Ganeshan2d 00:262018-05-25 05:04:002018-05-03 16:52:00[FAP] PotSetA
Xynak, the Arcane Master2d 03:062018-05-25 07:44:002018-05-02 02:09:00Pulse
Nayark the Mummified Sorcerer2d 06:352018-05-25 11:13:002018-05-01 07:20:00[FAP] AstralC
Emperor Neudeus, Controller of the Universe2d 10:152018-05-25 14:53:002018-04-27 15:25:00SAVAGE [COES2]
Straya, the Underworld Ruler2d 11:022018-05-25 15:40:002018-04-29 02:37:00SAVAGES
Grivvek, Protector of the Brood2d 17:532018-05-25 22:31:002018-05-01 13:55:00Warriors
Archdevil Yirkon2d 20:352018-05-26 01:13:002018-05-03 08:52:00[FAP] AstralD
Crolvak, the Fire Master2d 21:112018-05-26 01:49:002018-05-03 21:29:00SAVAGES
Keeper of Nature3d 01:172018-05-26 05:55:002018-05-03 15:31:00SAVAGE [ASTRAL2]
Esquin, the Kinetic Master3d 13:492018-05-26 18:27:002018-04-28 22:00:00~ The Following ~
Ormsul the Putrid3d 17:262018-05-26 22:04:002018-04-30 03:21:00Excommunicado
Anvilfist4d 00:102018-05-27 04:48:002018-05-02 23:11:00SAVAGE
Felroc, Overseer of Hellfire4d 03:292018-05-27 08:07:002018-05-03 11:25:00##ARGYBOYZ##
Raiyar, the Shadow Master4d 03:492018-05-27 08:27:002018-04-30 07:52:00Pulse
Skarthul the Avenged4d 04:162018-05-27 08:54:002018-05-01 08:22:00##ARGYBOYZ##
Animated Captain4d 09:542018-05-27 14:32:002018-04-17 14:02:00Pulse
Jade Dragonite87d 15:582018-02-24 12:39:002018-02-20 00:39:00 ##ARGYBOYZ##
Old World Drake58d 04:472018-03-25 23:50:002018-03-21 11:50:00_-Legacy-_
Crantos, Defender of Ultimation12d 06:542018-05-10 21:43:002018-04-30 16:34:00##ARGYBOYZ##
Varsanor, Master of Darkness5d 23:382018-05-17 04:59:002018-05-01 11:08:00- Insomnia -
91 Gods, Last update: 2018-05-23 03:15:02